Other Public Products
Issued by NWS Grand Forks, ND

Home | Current Version | Previous Version | Text Only | Print | Product List | Glossary Off
Versions: 1 2 3 4 5 6 7 8 9 10 11 12 13 14 15 16 17 18 19 20 21 22 23 24 25 26 27 28 29 30 31 32 33 34 35 36 37 38 39 40 41 42 43 44 45 46 47 48 49 50

000
FPUS83 KFGF 121631
OPUFGF
PRAIRIE TO PINES WEATHER ROUNDUP
NATIONAL WEATHER SERVICE EASTERN NORTH DAKOTA/GRAND FORKS ND
1000 AM CST TUE DEC 12 2017

 **SATELLITE DATA USED TO AUGMENT SKY COVER AT AUTOMATED STATIONS**
 *****  WEATHER ACROSS EASTERN NORTH DAKOTA  *****

CITY           SKY/WX    TMP DP  RH WIND       PRES   REMARKS
GRAND FORKS    CLOUDY    23  20  88 S12       29.98S WCI  12
GRND FORKS AFB PTSUNNY   25  22  88 SE7       29.96F WCI  18
GRND FORKS NWS   N/A     21 N/A N/A S10         N/A  WCI  10
BUXTON           N/A     24  22  96 SE8         N/A  WCI  14
DEVILS LAKE    CLOUDY    30  26  85 SW12      29.94F WCI  20
FARGO          CLOUDY    25  21  85 S12       30.03F WCI  14
WAHPETON ARPT    N/A     27  21  80 S8        30.06F WCI  18
$$

 *****  WEATHER ACROSS CENTRAL AND WESTERN NORTH DAKOTA  *****

CITY           SKY/WX    TMP DP  RH WIND       PRES   REMARKS
JAMESTOWN      CLOUDY    30  27  88 W6        29.99F WCI  24
BISMARCK       FAIR      30  26  85 SW3       30.02F
MINOT          FAIR      36  24  62 SW14      29.92F
MINOT AFB      CLOUDY    34  24  67 W14       29.91F WCI  25
GARRISON         N/A     31  26  82 W13       29.97F WCI  21
WILLISTON      FAIR      29  24  82 SW8       30.01F WCI  21
DICKINSON      FAIR      36  24  62 W16       30.00F
HETTINGER      FAIR      33  23  66 W10       30.07F WCI  25
$$

 *****  OTHER OBSERVATIONS NORTHEAST NORTH DAKOTA  *****

CITY           SKY/WX    TMP DP  RH WIND       PRES   REMARKS
WALHALLA       FAIR      30  30 100 CALM      29.90F
LANGDON        CLOUDY    30  30 100 SW9       29.88F WCI  22
CAVALIER       FAIR      25  23  93 S3        29.91F
GRAFTON        FAIR      25  23  93 S8        29.97F WCI  16
CANDO          CLOUDY    30  30 100 W12       29.93F WCI  21
FORT TOTTEN      N/A     31  26  81 SW5       29.95S
ROLLA          FAIR      28  27  93 SW12      29.88F WCI  18
RUGBY          FAIR      30  27  86 SW9       29.92F WCI  22
 ***** THE ABOVE OBSERVATIONS ARE NON NWS ARE NOT QUALITY
        CONTROLLED AND MAY MIS-REPORT RAIN FOR SNOW...
$$

 *****  OTHER OBSERVATIONS SOUTHEAST NORTH DAKOTA *****

CITY           SKY/WX    TMP DP  RH WIND       PRES   REMARKS
COOPERSTOWN    FAIR      30  28  93 W10       29.96F WCI  21
VALLEY CITY    PTSUNNY   28  28 100 W15       29.99F WCI  17
OAKES            N/A     27  27 100 SW10      30.04F WCI  17
GWINNER          N/A     27  25  93 SW13      30.03F WCI  16
SHEYENNE NWR     N/A     26  24  94 SW10      29.95S WCI  16
BUFFALO          N/A     29  26  88 SE12        N/A  WCI  19
WYNDMERE       NOT AVBL
 ***** THE ABOVE OBSERVATIONS ARE NON NWS ARE NOT QUALITY
       CONTROLLED AND MAY MIS-REPORT RAIN FOR SNOW...
$$

  *****  WEATHER ACROSS NORTHERN MINNESOTA  *****

CITY           SKY/WX    TMP DP  RH WIND       PRES   REMARKS
FLAG ISLAND    LGT SNOW   9   5  85 SE5       29.99F WCI   0
WARROAD        LGT SNOW  10   7  85 SE6       29.98F WCI   1
ROSEAU         LGT SNOW  12   9  85 SE5       29.98S WCI   4
HALLOCK        FAIR      19  18  93 S14       29.95F WCI   6
THF RVR FALLS  FLURRIES  18  16  92 S12       29.98F WCI   5
HALSTAD        NOT AVBL
FOSSTON        LGT SNOW  18  16  93 S13       29.99F WCI   4
BAUDETTE       LGT SNOW   7   5  91 SE8       30.00F VSB 1   WCI  -6
WASKISH        LGT SNOW   9   7  92 SE6       30.02S WCI  -1
CROOKSTON      FAIR      19  18  93 S13       29.99F WCI   7
$$
  *****  WEATHER ACROSS CENTRAL AND WEST MINNESOTA  *****

CITY           SKY/WX    TMP DP  RH WIND       PRES   REMARKS
BEMIDJI        LGT SNOW  11   9  90 S6        30.00F VSB 1   WCI   2
PARK RAPIDS    CLOUDY    12   9  87 SE7       30.02F FOG     WCI   1
WADENA         CLOUDY    14  12  92 S6        30.04F FOG     WCI   5
DETROIT LAKES  PTSUNNY   21  19  93 S6        30.02F WCI  14
MOORHEAD       FAIR      21  18  86 S12       30.03F WCI   9
FERGUS FALLS   FAIR      19  16  86 S9        30.10S WCI   9
ELBOW LAKE     CLOUDY    20  17  89 S10       30.07F FOG     WCI   9
MORRIS MN      CLOUDY    23  18  80 S9        30.08F WCI  13
STAPLES        CLOUDY    10   9  92 S7        30.06F WCI   0
WHEATON        CLOUDY    28  23  80 SW8       30.09F WCI  20
$$
  *****  WEATHER ELSEWHERE ACROSS MINNESOTA  *****

CITY           SKY/WX    TMP DP  RH WIND       PRES   REMARKS
DULUTH         CLOUDY     2  -1  88 NW5       30.06F WCI  -8
INTRNTL FALLS  CLOUDY     3  -1  83 SW5       30.06R WCI  -6
ELY            FAIR       1  -2  85 CALM      30.04F
CLOQUET        CLOUDY     5   0  78 NW6       30.08F WCI  -6
BRAINERD       CLOUDY     8   3  80 S7        30.10F HAZE    WCI  -3
HIBBING        CLOUDY     2  -1  88 CALM      30.07S
ALEXANDRIA     CLOUDY    17  12  80 SW9       30.07F WCI   6
SAINT CLOUD    CLOUDY    11   8  88 SW6       30.15F FOG     WCI   1
MINNEAPOLIS    PTSUNNY   12   5  73 NW6       30.19F WCI   3
$$

  *****  WEATHER ACROSS SOUTH DAKOTA  *****

CITY           SKY/WX    TMP DP  RH WIND       PRES   REMARKS
SIOUX FALLS    CLOUDY    24  19  81 SW6       30.19F WCI  17
BROOKINGS      FAIR      27  21  80 SW6       30.15S WCI  20
WATERTOWN      FAIR      25  22  88 SW10      30.11S WCI  15
HURON          FAIR      31  27  85 SW9       30.15F WCI  23
SISSETON         N/A     31  26  82 SW10      30.06F WCI  22
ABERDEEN       FAIR      28  26  92 SW10      30.11F WCI  19
MITCHELL       FAIR      31  27  85 SW6       30.19F
PIERRE         FAIR      28  24  85 W12       30.14F WCI  18
MOBRIDGE       FAIR      31  26  82 S6        30.06F
RAPID CITY     FAIR      37  12  35 CALM      30.15S SMOKE
$$

  *****  SOME WEATHER IN NEARBY STATES *****

CITY           SKY/WX    TMP DP  RH WIND       PRES   REMARKS
GLASGOW MT     FAIR      25  21  85 SW3       30.03F
GREAT FALLS MT FAIR      46   3  17 SW20      30.15S
CHEYENNE WY    FAIR      50  15  24 W20       30.32S
SCOTTSBLUFF NE FAIR      34  19  54 NW10      30.27S
OMAHA NE       FAIR      24  16  71 CALM      30.32S
DES MOINES IA  PTSUNNY   20   9  62 NW9       30.28F WCI   9
DAVENPORT IA   FAIR      19  11  70 NW12      30.22R WCI   7
CHICAGO IL     FAIR      19   6  57 NW21G30   30.09S WCI   3
EAU CLAIRE WI  PTSUNNY    8   1  73 NW9       30.15F WCI  -5
LA CROSSE WI   FAIR      15   4  61 N13       30.19S WCI   1
$$

  *****  SOME NATIONAL WEATHER *****

CITY           SKY/WX    TMP DP  RH WIND       PRES   REMARKS
LA GUARDIA NY  CLOUDY    51  42  71 S14G26    29.52F
RALEIGH NC     PTSUNNY   45  37  73 W7        29.69F
ATLANTA GA     FAIR      49  32  52 NW28G35   29.93R
NEW ORLEANS LA FAIR      57  39  51 N13G20    30.20R
OKLAHOMA CITY  FAIR      40  27  59 N13       30.43R
ALBUQUERQUE NM FAIR      35   6  29 CALM      30.52R
SALT LAKE CITY FOG       24  23  96 N3        30.61S VSB 1/4
LOS ANGELES CA FAIR      62   8  12 VRB5      30.19S
BOISE ID       CLOUDY    23  21  92 CALM      30.68R FOG
SEATTLE WA     CLOUDY    37  29  72 N7        30.47R
$$

*** WEATHER ACROSS MANITOBA...SASKATCHEWAN AND ONTARIO ***
                ***ONTARIO***

CITY           SKY/WX    TMP DP  RH WIND       PRES   REMARKS
GERALDTON      FLURRIES  -6 -11  77 VRB2      30.00S
THUNDER BAY    MOSUNNY    0  -8  71 NW7       30.10S WCI -13
SIOUX LOOKOUT  PTSUNNY   -8 -13  77 VRB2      30.02F
TORONTO        PTSUNNY   25  16  68 NW21G30   29.54R WCI  10
BIG TROUT LK   CLEAR    -11 -17  77 W6        29.98F WCI -25
PICKLE LAKE    MOSUNNY  -13 -18  77 W7        29.98S WCI -29
DRYDEN         CLOUDY    -4  -8  84 CALM      30.00F
KENORA         FLURRIES   3   0  85 S7        29.98F WCI  -9
$$
                *** MANITOBA***

CITY           SKY/WX    TMP DP  RH WIND       PRES   REMARKS
BRANDON        MOCLDY    28  25  86 W6        29.86F WCI  22
DAUPHIN        PTCLDY    32  27  80 SW8       29.80F WCI  25
ISLAND LAKE    MOCLDY    -8 -11  84 SE7       29.94F WCI -22
PILOT MOUND      N/A     27  25  93 SW5         N/A  WCI  21
THE PAS        CLOUDY    18  16  93 SE13      29.70F FOG     WCI   4
THOMPSON       LGT SNOW   0  -4  85 VRB2      29.82S
WINNIPEG       FLURRIES  16  14  93 SE10      29.93F WCI   3
LYNN LAKE      FLURRIES   9   7  92 SE10      29.61F WCI  -6
CHURCHILL      MOCLDY   -20 -26  76 W3        29.95F
GILLAM         MOCLDY   -15 -20  76 VRB2      29.92F
$$
                ***SASKATCHEWAN***

CITY           SKY/WX    TMP DP  RH WIND       PRES   REMARKS
ESTEVAN        PTCLDY    30  23  74 SW12      29.91F WCI  21
KINDERSLEY     MOCLDY    27  21  80 SW12      29.83F WCI  16
LLOYDMINSTER   CLOUDY    36  27  69 W13       29.79F
PRINCE ALBERT  PTCLDY    23  19  86 W2        29.74F
REGINA         CLEAR     28  23  80 SW5       29.85F WCI  23
YORKTON        CLEAR     28  23  80 SW8       29.77F W



USA.gov is the U.S. government's official web portal to all federal, state and local government web resources and services.